| time (UTC) | temp C | wind direction | speed KPH | gust KPH | rain 1hr cm | rain 24hr cm | rain mn cm | humidity % | barometer mb |
| 20260906003625 | 30 | 45 | 0.0 | 0.0 | 0.00 | 0.00 | 0.00 | 62 | 1057.1 |
| 20260906003526 | 30 | 45 | 0.0 | 0.0 | 0.00 | 0.00 | 0.00 | 62 | 1057.2 |
| 20260906002525 | 31 | 45 | 0.0 | 0.0 | 0.00 | 0.00 | 0.00 | 59 | 1057.0 |
| 20260906001525 | 31 | 45 | 0.0 | 0.0 | 0.00 | 0.00 | 0.00 | 56 | 1057.1 |
| 20260905235527 | 33 | 45 | 0.0 | 0.0 | 0.00 | 0.00 | 0.00 | 51 | 1057.2 |
| 20260905234625 | 33 | 45 | 0.0 | 0.0 | 0.00 | 0.00 | 0.00 | 51 | 1057.1 |
| 20260905233624 | 34 | 360 | 0.0 | 0.0 | 0.00 | 0.00 | 0.00 | 50 | 1057.1 |
| 20260905232526 | 34 | 15 | 1.6 | 6.4 | 0.00 | 0.00 | 0.00 | 49 | 1056.9 |
| 20260905231527 | 35 | 16 | 3.2 | 6.4 | 0.00 | 0.00 | 0.00 | 49 | 1056.9 |
| 20260905230526 | 35 | 32 | 0.0 | 3.2 | 0.00 | 0.00 | 0.00 | 47 | 1056.8 |
| 20260905225625 | 35 | 40 | 1.6 | 3.2 | 0.00 | 0.00 | 0.00 | 47 | 1056.9 |
| 20260905223625 | 36 | 44 | 6.4 | 12.9 | 0.00 | 0.00 | 0.00 | 39 | 1056.9 |
| 20260905222627 | 37 | 288 | 4.8 | 9.7 | 0.00 | 0.00 | 0.00 | 38 | 1056.8 |
| 20260905221624 | 37 | 318 | 4.8 | 6.4 | 0.00 | 0.00 | 0.00 | 38 | 1056.6 |
| 20260905215724 | 37 | 32 | 3.2 | 6.4 | 0.00 | 0.00 | 0.00 | 40 | 1056.7 |
| 20260905210724 | 37 | 242 | 0.0 | 4.8 | 0.00 | 0.00 | 0.00 | 40 | 1057.1 |
| 20260905210626 | 37 | 62 | 0.0 | 6.4 | 0.00 | 0.00 | 0.00 | 40 | 1057.1 |
| 20260905205724 | 36 | 298 | 3.2 | 6.4 | 0.00 | 0.00 | 0.00 | 41 | 1057.0 |
| 20260905204726 | 37 | 297 | 0.0 | 4.8 | 0.00 | 0.00 | 0.00 | 39 | 1057.1 |
| 20260905203743 | 37 | 282 | 6.4 | 8.0 | 0.00 | 0.00 | 0.00 | 39 | 1057.1 |
| 20260905202726 | 38 | 288 | 4.8 | 9.7 | 0.00 | 0.00 | 0.00 | 37 | 1057.4 |
| 20260905201727 | 37 | 286 | 4.8 | 11.3 | 0.00 | 0.00 | 0.00 | 39 | 1057.5 |
| 20260905200824 | 37 | 28 | 4.8 | 8.0 | 0.00 | 0.00 | 0.00 | 40 | 1057.7 |
| 20260905194925 | 37 | 345 | 1.6 | 6.4 | 0.00 | 0.00 | 0.00 | 41 | 1057.6 |
| 20260905193924 | 36 | 285 | 3.2 | 8.0 | 0.00 | 0.00 | 0.00 | 42 | 1057.8 |
| 20260905193024 | 36 | 203 | 1.6 | 4.8 | 0.00 | 0.00 | 0.00 | 43 | 1057.7 |
| 20260905192025 | 36 | 237 | 3.2 | 12.9 | 0.00 | 0.00 | 0.00 | 42 | 1058.0 |
| 20260905191123 | 37 | 327 | 4.8 | 8.0 | 0.00 | 0.00 | 0.00 | 43 | 1058.2 |
| 20260905190127 | 36 | 334 | 3.2 | 9.7 | 0.00 | 0.00 | 0.00 | 42 | 1058.3 |
| 20260905185124 | 36 | 247 | 0.0 | 0.0 | 0.00 | 0.00 | 0.00 | 44 | 1058.4 |
| 20260905184123 | 36 | 225 | 8.0 | 11.3 | 0.00 | 0.00 | 0.00 | 43 | 1058.5 |
| 20260905183125 | 36 | 278 | 6.4 | 9.7 | 0.00 | 0.00 | 0.00 | 42 | 1058.7 |
| 20260905182126 | 36 | 347 | 3.2 | 8.0 | 0.00 | 0.00 | 0.00 | 43 | 1058.8 |
| 20260905181126 | 36 | 228 | 9.7 | 17.7 | 0.00 | 0.00 | 0.00 | 44 | 1058.9 |
| 20260905181024 | 36 | 230 | 9.7 | 12.9 | 0.00 | 0.00 | 0.00 | 44 | 1058.9 |
| 20260905180023 | 36 | 279 | 6.4 | 8.0 | 0.00 | 0.00 | 0.00 | 43 | 1058.9 |
| 20260905175042 | 36 | 300 | 6.4 | 11.3 | 0.00 | 0.00 | 0.00 | 45 | 1058.9 |
| 20260905173123 | 35 | 1 | 6.4 | 9.7 | 0.00 | 0.00 | 0.00 | 46 | 1059.1 |
| 20260905173041 | 35 | 268 | 6.4 | 9.7 | 0.00 | 0.00 | 0.00 | 47 | 1059.2 |
| 20260905172024 | 35 | 239 | 6.4 | 11.3 | 0.00 | 0.00 | 0.00 | 47 | 1059.3 |
| 20260905170026 | 36 | 197 | 3.2 | 8.0 | 0.00 | 0.00 | 0.00 | 46 | 1059.5 |
| 20260905165123 | 36 | 270 | 1.6 | 3.2 | 0.00 | 0.00 | 0.00 | 48 | 1059.6 |
| 20260905164123 | 35 | 356 | 3.2 | 8.0 | 0.00 | 0.00 | 0.00 | 50 | 1059.8 |
| 20260905163125 | 34 | 225 | 3.2 | 6.4 | 0.00 | 0.00 | 0.00 | 52 | 1059.7 |
| 20260905162223 | 34 | 261 | 4.8 | 6.4 | 0.00 | 0.00 | 0.00 | 52 | 1059.8 |
| 20260905161322 | 33 | 38 | 4.8 | 11.3 | 0.00 | 0.00 | 0.00 | 54 | 1060.0 |
| 20260905160323 | 33 | 237 | 4.8 | 9.7 | 0.00 | 0.00 | 0.00 | 53 | 1060.1 |
| 20260905154340 | 33 | 313 | 4.8 | 6.4 | 0.00 | 0.00 | 0.00 | 54 | 1060.1 |
| 20260905154226 | 33 | 245 | 6.4 | 8.0 | 0.00 | 0.00 | 0.00 | 55 | 1060.1 |
| 20260905153225 | 33 | 237 | 1.6 | 6.4 | 0.00 | 0.00 | 0.00 | 55 | 1060.3 |
| 20260905151324 | 32 | 253 | 3.2 | 6.4 | 0.00 | 0.00 | 0.00 | 60 | 1060.2 |
| 20260905151227 | 32 | 332 | 1.6 | 4.8 | 0.00 | 0.00 | 0.00 | 61 | 1060.1 |
| 20260905151123 | 31 | 313 | 1.6 | 3.2 | 0.00 | 0.00 | 0.00 | 61 | 1060.2 |
| 20260905150125 | 31 | 234 | 6.4 | 9.7 | 0.00 | 0.00 | 0.00 | 61 | 1060.2 |
| 20260905150024 | 31 | 229 | 3.2 | 4.8 | 0.00 | 0.00 | 0.00 | 61 | 1060.3 |
| 20260905145027 | 31 | 244 | 1.6 | 3.2 | 0.00 | 0.00 | 0.00 | 62 | 1060.1 |
| 20260905144123 | 30 | 225 | 4.8 | 8.0 | 0.00 | 0.00 | 0.00 | 64 | 1060.1 |
| 20260905143124 | 30 | 268 | 0.0 | 3.2 | 0.00 | 0.00 | 0.00 | 66 | 1060.2 |
| 20260905141125 | 30 | 247 | 1.6 | 3.2 | 0.00 | 0.00 | 0.00 | 67 | 1060.2 |
| 20260905140124 | 30 | 225 | 0.0 | 1.6 | 0.00 | 0.00 | 0.00 | 69 | 1060.4 |
| 20260905135125 | 30 | 225 | 3.2 | 4.8 | 0.00 | 0.00 | 0.00 | 73 | 1060.4 |
| 20260905133224 | 28 | 225 | 1.6 | 3.2 | 0.00 | 0.00 | 0.00 | 87 | 1060.4 |
| 20260905133124 | 28 | 197 | 0.0 | 3.2 | 0.00 | 0.00 | 0.00 | 88 | 1060.4 |
| 20260905132124 | 27 | 157 | 0.0 | 0.0 | 0.00 | 0.00 | 0.00 | 92 | 1060.4 |
| 20260905131224 | 26 | 157 | 0.0 | 0.0 | 0.00 | 0.00 | 0.00 | 96 | 1060.3 |
| 20260905125323 | 23 | 157 | 0.0 | 0.0 | 0.00 | 0.00 | 0.00 | 96 | 1060.1 |
| 20260905124323 | 23 | 157 | 0.0 | 0.0 | 0.00 | 0.00 | 0.00 | 97 | 1060.2 |
| 20260905123324 | 23 | 157 | 0.0 | 0.0 | 0.00 | 0.00 | 0.00 | 96 | 1060.1 |
| 20260905123224 | 23 | 157 | 0.0 | 0.0 | 0.00 | 0.00 | 0.00 | 97 | 1060.2 |
| 20260905122222 | 23 | 157 | 0.0 | 0.0 | 0.00 | 0.00 | 0.00 | 96 | 1060.1 |
| 20260905121322 | 22 | 157 | 0.0 | 0.0 | 0.00 | 0.00 | 0.00 | 97 | 1060.0 |
| 20260905120340 | 22 | 157 | 0.0 | 0.0 | 0.00 | 0.00 | 0.00 | 96 | 1060.1 |
| 20260905120223 | 22 | 157 | 0.0 | 0.0 | 0.00 | 0.00 | 0.00 | 97 | 1060.1 |
| 20260905115225 | 22 | 157 | 0.0 | 0.0 | 0.00 | 0.00 | 0.00 | 97 | 1060.1 |
| 20260905114222 | 22 | 157 | 0.0 | 0.0 | 0.00 | 0.00 | 0.00 | 96 | 1060.0 |
| 20260905113223 | 22 | 157 | 0.0 | 0.0 | 0.00 | 0.00 | 0.00 | 97 | 1060.0 |
| 20260905113123 | 22 | 157 | 0.0 | 0.0 | 0.00 | 0.00 | 0.00 | 96 | 1059.9 |
| 20260905112223 | 22 | 157 | 0.0 | 0.0 | 0.00 | 0.00 | 0.00 | 97 | 1059.9 |
| 20260905111224 | 22 | 157 | 0.0 | 0.0 | 0.00 | 0.00 | 0.00 | 96 | 1059.9 |
| 20260905110223 | 22 | 157 | 0.0 | 0.0 | 0.00 | 0.00 | 0.00 | 97 | 1059.7 |
| 20260905105224 | 22 | 157 | 0.0 | 0.0 | 0.00 | 0.00 | 0.00 | 96 | 1059.7 |
| 20260905104224 | 22 | 157 | 0.0 | 0.0 | 0.00 | 0.00 | 0.00 | 95 | 1059.7 |
| 20260905102223 | 22 | 157 | 0.0 | 0.0 | 0.00 | 0.00 | 0.00 | 95 | 1059.7 |
| 20260905101225 | 22 | 157 | 0.0 | 0.0 | 0.00 | 0.00 | 0.00 | 95 | 1059.7 |
| 20260905100323 | 22 | 157 | 0.0 | 0.0 | 0.00 | 0.00 | 0.00 | 96 | 1059.6 |
| 20260905095422 | 22 | 157 | 0.0 | 0.0 | 0.00 | 0.00 | 0.00 | 96 | 1059.5 |
| 20260905094424 | 22 | 157 | 0.0 | 0.0 | 0.00 | 0.00 | 0.00 | 95 | 1059.5 |
| 20260905093424 | 22 | 157 | 0.0 | 0.0 | 0.00 | 0.00 | 0.00 | 96 | 1059.4 |
| 20260905093322 | 22 | 157 | 0.0 | 0.0 | 0.00 | 0.00 | 0.00 | 96 | 1059.4 |
| 20260905092324 | 22 | 157 | 0.0 | 0.0 | 0.00 | 0.00 | 0.00 | 96 | 1059.4 |
| 20260905090322 | 22 | 157 | 0.0 | 0.0 | 0.00 | 0.00 | 0.00 | 96 | 1059.4 |
| 20260905085324 | 22 | 157 | 0.0 | 0.0 | 0.00 | 0.00 | 0.00 | 94 | 1059.4 |
| 20260905083325 | 22 | 157 | 0.0 | 0.0 | 0.00 | 0.00 | 0.00 | 94 | 1059.5 |
| 20260905083225 | 22 | 157 | 0.0 | 0.0 | 0.00 | 0.00 | 0.00 | 95 | 1059.5 |
| 20260905083125 | 22 | 157 | 0.0 | 0.0 | 0.00 | 0.00 | 0.00 | 95 | 1059.5 |
| 20260905082125 | 22 | 157 | 0.0 | 0.0 | 0.00 | 0.00 | 0.00 | 95 | 1059.5 |
| 20260905080223 | 22 | 157 | 0.0 | 0.0 | 0.00 | 0.00 | 0.00 | 94 | 1059.5 |
| 20260905075223 | 22 | 157 | 0.0 | 0.0 | 0.00 | 0.00 | 0.00 | 94 | 1059.4 |
| 20260905074224 | 22 | 157 | 0.0 | 0.0 | 0.00 | 0.00 | 0.00 | 94 | 1059.4 |
| 20260905073323 | 22 | 157 | 0.0 | 0.0 | 0.00 | 0.00 | 0.00 | 93 | 1059.6 |
| 20260905072338 | 22 | 157 | 0.0 | 0.0 | 0.00 | 0.00 | 0.00 | 92 | 1059.6 |
| 20260905071340 | 22 | 157 | 0.0 | 0.0 | 0.00 | 0.00 | 0.00 | 92 | 1059.7 |
| 20260905070338 | 23 | 157 | 0.0 | 0.0 | 0.00 | 0.00 | 0.00 | 92 | 1059.6 |
| 20260905064324 | 23 | 157 | 0.0 | 0.0 | 0.00 | 0.00 | 0.00 | 91 | 1059.6 |
| 20260905063421 | 23 | 157 | 0.0 | 0.0 | 0.00 | 0.00 | 0.00 | 92 | 1059.6 |
| 20260905062424 | 23 | 157 | 0.0 | 0.0 | 0.00 | 0.00 | 0.00 | 91 | 1059.7 |
| 20260905061423 | 23 | 157 | 0.0 | 0.0 | 0.00 | 0.00 | 0.00 | 90 | 1059.9 |
| 20260905055424 | 23 | 157 | 0.0 | 0.0 | 0.00 | 0.00 | 0.00 | 90 | 1060.0 |
| 20260905054521 | 23 | 157 | 0.0 | 0.0 | 0.00 | 0.00 | 0.00 | 90 | 1060.1 |
| 20260905053523 | 23 | 157 | 0.0 | 0.0 | 0.00 | 0.00 | 0.00 | 88 | 1060.1 |
| 20260905052523 | 23 | 157 | 0.0 | 0.0 | 0.00 | 0.00 | 0.00 | 87 | 1060.1 |
| 20260905051521 | 23 | 157 | 0.0 | 0.0 | 0.00 | 0.00 | 0.00 | 87 | 1060.1 |
| 20260905044621 | 24 | 157 | 0.0 | 0.0 | 0.00 | 0.00 | 0.00 | 86 | 1059.9 |
| 20260905044518 | 24 | 157 | 0.0 | 0.0 | 0.00 | 0.00 | 0.00 | 86 | 1059.8 |
| 20260905042535 | 25 | 157 | 0.0 | 0.0 | 0.00 | 0.00 | 0.00 | 84 | 1059.8 |
| 20260905041519 | 25 | 157 | 0.0 | 0.0 | 0.00 | 0.00 | 0.00 | 84 | 1059.8 |
| 20260905040519 | 25 | 157 | 0.0 | 0.0 | 0.00 | 0.00 | 0.00 | 85 | 1059.8 |
| 20260905035519 | 25 | 157 | 0.0 | 0.0 | 0.00 | 0.00 | 0.00 | 85 | 1059.8 |
| 20260905035420 | 25 | 157 | 0.0 | 0.0 | 0.00 | 0.00 | 0.00 | 86 | 1059.8 |
| 20260905034420 | 24 | 157 | 0.0 | 0.0 | 0.00 | 0.00 | 0.00 | 85 | 1060.0 |
| 20260905034318 | 24 | 157 | 0.0 | 0.0 | 0.00 | 0.00 | 0.00 | 85 | 1060.0 |
| 20260905033319 | 25 | 157 | 0.0 | 0.0 | 0.00 | 0.00 | 0.00 | 85 | 1059.8 |
| 20260905032319 | 25 | 157 | 0.0 | 0.0 | 0.00 | 0.00 | 0.00 | 83 | 1060.1 |
| 20260905031318 | 25 | 157 | 0.0 | 0.0 | 0.00 | 0.00 | 0.00 | 82 | 1060.1 |
| 20260905030318 | 25 | 157 | 0.0 | 0.0 | 0.00 | 0.00 | 0.00 | 82 | 1060.1 |
| 20260905024322 | 25 | 157 | 0.0 | 0.0 | 0.00 | 0.00 | 0.00 | 81 | 1059.9 |
| 20260905023319 | 25 | 157 | 0.0 | 0.0 | 0.00 | 0.00 | 0.00 | 79 | 1059.8 |
| 20260905023221 | 25 | 157 | 0.0 | 0.0 | 0.00 | 0.00 | 0.00 | 80 | 1059.9 |
| 20260905020321 | 26 | 157 | 0.0 | 0.0 | 0.00 | 0.00 | 0.00 | 78 | 1059.7 |
| 20260905020219 | 26 | 157 | 0.0 | 0.0 | 0.00 | 0.00 | 0.00 | 78 | 1059.6 |
| 20260905015219 | 26 | 157 | 0.0 | 0.0 | 0.00 | 0.00 | 0.00 | 73 | 1059.6 |
| 20260905013220 | 27 | 157 | 0.0 | 0.0 | 0.00 | 0.00 | 0.00 | 69 | 1059.3 |
| 20260905012119 | 27 | 157 | 0.0 | 0.0 | 0.00 | 0.00 | 0.00 | 67 | 1059.2 |
| 20260905011118 | 28 | 157 | 0.0 | 0.0 | 0.00 | 0.00 | 0.00 | 64 | 1059.1 |
| 20260905010119 | 28 | 157 | 0.0 | 0.0 | 0.00 | 0.00 | 0.00 | 61 | 1059.1 |
| 20260905010023 | 28 | 157 | 0.0 | 0.0 | 0.00 | 0.00 | 0.00 | 60 | 1059.1 |
| 20260905005918 | 28 | 157 | 0.0 | 0.0 | 0.00 | 0.00 | 0.00 | 60 | 1059.2 |
| 20260905005818 | 28 | 157 | 0.0 | 0.0 | 0.00 | 0.00 | 0.00 | 60 | 1059.1 |
| 20260905004819 | 29 | 157 | 0.0 | 0.0 | 0.00 | 0.00 | 0.00 | 59 | 1059.1 |
| 20260905004719 | 30 | 157 | 0.0 | 0.0 | 0.00 | 0.00 | 0.00 | 58 | 1059.0 |